01 | 02 | 2023

Klimadaten

Klimadaten von der Klimastation Reinstorf   ( 2m Messungen )  

Datum Zeit Temp.Außen Temp.min Temp.max BodenTemp 1 BodenTemp 2 BodenTemp 3 BodenTemp 4 Feuchte Auße BlattFeu 1 BlattFeu 2 Bod.Feucht 1 Luftdruck Regen Wind Richtung Richtung Sonnenschein Zeit Temp. A ET UV Solar Taupunkt Windchill Windböen
31.01.23 00:00:00 4,2 °C 4,1 °C 4,3 °C 1,7 °C 1,7 °C 2,2 °C 3,3 °C 79,00% 0 lf 0 lf 44 cb 1013,6 hPa 0,0 mm 33,8 km/h (5 Bft) W-NW 292 ° 0 min 0 min 0,051 mm 0,0 UV-I 0 W/m² 0,9 °C -1,4 °C 57,9 km/h (7 Bft)
31.01.23 00:30:00 4,0 °C 3,9 °C 4,2 °C 1,7 °C 1,7 °C 2,2 °C 3,3 °C 79,00% 0 lf 0 lf 44 cb 1013,9 hPa 0,0 mm 29,0 km/h (5 Bft) W-NW 292 ° 0 min 0 min 0,000 mm 0,0 UV-I 0 W/m² 0,7 °C -1,3 °C 48,3 km/h (6 Bft)
31.01.23 01:00:00 3,8 °C 3,7 °C 4,1 °C 1,1 °C 1,1 °C 1,7 °C 3,3 °C 81,00% 0 lf 0 lf 44 cb 1013,7 hPa 0,0 mm 27,4 km/h (5 Bft) W-NW 292 ° 0 min 0 min 0,025 mm 0,0 UV-I 0 W/m² 0,8 °C -1,4 °C 45,1 km/h (6 Bft)
31.01.23 01:30:00 3,7 °C 3,6 °C 3,9 °C 1,7 °C 1,1 °C 1,7 °C 3,3 °C 82,00% 0 lf 0 lf 44 cb 1014,0 hPa 0,0 mm 29,0 km/h (5 Bft) W-NW 292 ° 0 min 0 min 0,000 mm 0,0 UV-I 0 W/m² 0,9 °C -1,7 °C 49,9 km/h (7 Bft)
31.01.23 02:00:00 3,5 °C 3,4 °C 3,7 °C 1,1 °C 1,1 °C 1,7 °C 3,3 °C 83,00% 0 lf 0 lf 44 cb 1014,4 hPa 0,0 mm 27,4 km/h (5 Bft) W-NW 292 ° 0 min 0 min 0,025 mm 0,0 UV-I 0 W/m² 0,9 °C -1,8 °C 46,7 km/h (6 Bft)
31.01.23 02:30:00 3,7 °C 3,4 °C 3,7 °C 1,7 °C 1,1 °C 1,7 °C 3,3 °C 83,00% 0 lf 0 lf 45 cb 1014,9 hPa 0,0 mm 29,0 km/h (5 Bft) W-NW 292 ° 0 min 0 min 0,000 mm 0,0 UV-I 0 W/m² 1,1 °C -1,9 °C 43,5 km/h (6 Bft)
31.01.23 03:00:00 3,7 °C 3,6 °C 3,7 °C 2,2 °C 1,1 °C 1,7 °C 3,3 °C 82,00% 0 lf 0 lf 45 cb 1015,5 hPa 0,0 mm 29,0 km/h (5 Bft) W-NW 292 ° 0 min 0 min 0,025 mm 0,0 UV-I 0 W/m² 0,9 °C -1,7 °C 45,1 km/h (6 Bft)
31.01.23 03:30:00 3,3 °C 3,3 °C 3,8 °C 1,7 °C 1,1 °C 1,7 °C 3,3 °C 84,00% 0 lf 0 lf 45 cb 1015,7 hPa 0,0 mm 25,7 km/h (4 Bft) W 270 ° 0 min 0 min 0,000 mm 0,0 UV-I 0 W/m² 0,9 °C -1,7 °C 38,6 km/h (6 Bft)
31.01.23 04:00:00 3,1 °C 3,1 °C 3,3 °C 1,1 °C 1,1 °C 1,7 °C 3,3 °C 85,00% 0 lf 0 lf 44 cb 1015,7 hPa 0,0 mm 22,5 km/h (4 Bft) W 270 ° 0 min 0 min 0,025 mm 0,0 UV-I 0 W/m² 0,8 °C -1,6 °C 35,4 km/h (5 Bft)
31.01.23 04:30:00 2,9 °C 2,8 °C 3,1 °C 1,1 °C 1,1 °C 1,7 °C 3,3 °C 85,00% 0 lf 0 lf 44 cb 1015,8 hPa 0,0 mm 22,5 km/h (4 Bft) W 270 ° 0 min 0 min 0,000 mm 0,0 UV-I 0 W/m² 0,6 °C -2,0 °C 32,2 km/h (5 Bft)
31.01.23 05:00:00 3,2 °C 2,8 °C 3,2 °C 1,7 °C 1,1 °C 1,7 °C 3,3 °C 85,00% 0 lf 0 lf 45 cb 1016,0 hPa 0,0 mm 22,5 km/h (4 Bft) W 270 ° 0 min 0 min 0,025 mm 0,0 UV-I 0 W/m² 0,9 °C -2,0 °C 33,8 km/h (5 Bft)
31.01.23 05:30:00 3,3 °C 3,2 °C 3,3 °C 1,7 °C 1,1 °C 1,7 °C 2,8 °C 85,00% 0 lf 0 lf 45 cb 1015,9 hPa 0,0 mm 20,9 km/h (4 Bft) W 270 ° 0 min 0 min 0,000 mm 0,0 UV-I 0 W/m² 1,0 °C -1,3 °C 37,0 km/h (5 Bft)
31.01.23 06:00:00 3,5 °C 3,2 °C 3,6 °C 2,2 °C 1,1 °C 1,7 °C 2,8 °C 85,00% 0 lf 0 lf 46 cb 1016,2 hPa 0,0 mm 19,3 km/h (3 Bft) W 270 ° 0 min 0 min 0,000 mm 0,0 UV-I 0 W/m² 1,2 °C -1,1 °C 33,8 km/h (5 Bft)
31.01.23 06:30:00 3,8 °C 3,5 °C 3,8 °C 2,8 °C 1,7 °C 1,7 °C 2,8 °C 85,00% 0 lf 0 lf 47 cb 1016,0 hPa 0,0 mm 19,3 km/h (3 Bft) W 270 ° 0 min 0 min 0,000 mm 0,0 UV-I 0 W/m² 1,5 °C -0,7 °C 32,2 km/h (5 Bft)
31.01.23 07:00:00 3,8 °C 3,8 °C 3,9 °C 2,2 °C 1,7 °C 1,7 °C 2,8 °C 85,00% 9 lf 0 lf 46 cb 1016,0 hPa 0,0 mm 16,1 km/h (3 Bft) W-SW 247 ° 0 min 0 min 0,000 mm 0,0 UV-I 0 W/m² 1,5 °C 0,1 °C 33,8 km/h (5 Bft)
31.01.23 07:30:00 3,7 °C 3,5 °C 3,8 °C 2,2 °C 1,7 °C 1,7 °C 2,8 °C 87,00% 0 lf 0 lf 46 cb 1015,8 hPa 0,0 mm 12,9 km/h (3 Bft) SW 225 ° 0 min 0 min 0,000 mm 0,0 UV-I 0 W/m² 1,7 °C 0,3 °C 24,1 km/h (4 Bft)
31.01.23 08:00:00 3,5 °C 3,5 °C 3,7 °C 2,2 °C 1,7 °C 1,7 °C 2,8 °C 88,00% 1 lf 0 lf 46 cb 1015,7 hPa 0,0 mm 16,1 km/h (3 Bft) W-SW 247 ° 0 min 0 min 0,000 mm 0,0 UV-I 0 W/m² 1,7 °C -0,3 °C 27,4 km/h (5 Bft)
31.01.23 08:30:00 3,8 °C 3,5 °C 3,8 °C 2,8 °C 1,7 °C 1,7 °C 2,8 °C 88,00% 15 lf 100 lf 47 cb 1015,8 hPa 0,0 mm 16,1 km/h (3 Bft) W-SW 247 ° 15 min 0 min 0,000 mm 0,0 UV-I 2 W/m² 2,0 °C -0,3 °C 29,0 km/h (5 Bft)
31.01.23 09:00:00 4,1 °C 3,8 °C 4,1 °C 3,3 °C 2,2 °C 2,2 °C 2,8 °C 89,00% 8 lf 100 lf 47 cb 1015,4 hPa 0,0 mm 14,5 km/h (3 Bft) W-SW 247 ° 15 min 0 min 0,000 mm 0,0 UV-I 13 W/m² 2,5 °C 0,4 °C 24,1 km/h (4 Bft)
31.01.23 09:30:00 4,3 °C 4,1 °C 4,3 °C 3,3 °C 2,2 °C 2,2 °C 2,8 °C 90,00% 15 lf 100 lf 47 cb 1015,1 hPa 0,0 mm 12,9 km/h (3 Bft) SW 225 ° 15 min 0 min 0,000 mm 0,0 UV-I 32 W/m² 2,8 °C 1,0 °C 25,7 km/h (4 Bft)
31.01.23 10:00:00 4,8 °C 4,3 °C 4,8 °C 3,9 °C 2,8 °C 2,2 °C 2,8 °C 89,00% 15 lf 100 lf 48 cb 1014,3 hPa 0,5 mm 14,5 km/h (3 Bft) SW 225 ° 15 min 15 min 0,025 mm 0,0 UV-I 67 W/m² 3,1 °C 1,0 °C 25,7 km/h (4 Bft)
31.01.23 10:30:00 5,1 °C 4,7 °C 5,1 °C 4,4 °C 3,3 °C 2,8 °C 2,8 °C 89,00% 15 lf 100 lf 49 cb 1013,9 hPa 0,0 mm 16,1 km/h (3 Bft) SW 225 ° 15 min 0 min 0,000 mm 0,0 UV-I 60 W/m² 3,4 °C 1,2 °C 27,4 km/h (5 Bft)
31.01.23 11:00:00 5,0 °C 4,9 °C 5,1 °C 3,9 °C 3,3 °C 2,8 °C 2,8 °C 89,00% 15 lf 100 lf 48 cb 1013,4 hPa 0,5 mm 19,3 km/h (3 Bft) SW 225 ° 15 min 15 min 0,051 mm 0,0 UV-I 50 W/m² 3,3 °C 1,0 °C 35,4 km/h (5 Bft)
31.01.23 11:30:00 4,9 °C 4,9 °C 5,1 °C 3,9 °C 3,3 °C 2,8 °C 2,8 °C 90,00% 15 lf 100 lf 47 cb 1013,0 hPa 0,5 mm 17,7 km/h (3 Bft) SW 225 ° 15 min 15 min 0,000 mm 0,0 UV-I 39 W/m² 3,4 °C 1,2 °C 30,6 km/h (5 Bft)
31.01.23 12:00:00 5,1 °C 4,9 °C 5,1 °C 4,4 °C 3,3 °C 2,8 °C 2,8 °C 90,00% 15 lf 100 lf 48 cb 1012,0 hPa 1,5 mm 17,7 km/h (3 Bft) SW 225 ° 15 min 15 min 0,025 mm 0,0 UV-I 51 W/m² 3,6 °C 1,2 °C 30,6 km/h (5 Bft)
31.01.23 12:30:00 5,2 °C 5,1 °C 5,3 °C 4,4 °C 3,9 °C 3,3 °C 2,8 °C 90,00% 15 lf 100 lf 47 cb 1011,0 hPa 0,5 mm 19,3 km/h (3 Bft) SW 225 ° 15 min 15 min 0,000 mm 0,0 UV-I 51 W/m² 3,7 °C 1,3 °C 35,4 km/h (5 Bft)
31.01.23 13:00:00 5,3 °C 5,2 °C 5,3 °C 4,4 °C 3,9 °C 3,3 °C 2,8 °C 90,00% 15 lf 100 lf 48 cb 1010,5 hPa 0,0 mm 22,5 km/h (4 Bft) SW 225 ° 15 min 0 min 0,051 mm 0,0 UV-I 43 W/m² 3,8 °C 1,0 °C 38,6 km/h (6 Bft)
31.01.23 13:30:00 5,5 °C 5,2 °C 5,5 °C 5,0 °C 3,9 °C 3,3 °C 3,3 °C 91,00% 15 lf 100 lf 48 cb 1009,8 hPa 0,5 mm 22,5 km/h (4 Bft) SW 225 ° 15 min 15 min 0,000 mm 0,0 UV-I 74 W/m² 4,2 °C 1,0 °C 35,4 km/h (5 Bft)
31.01.23 14:00:00 5,7 °C 5,5 °C 5,7 °C 5,0 °C 4,4 °C 3,3 °C 3,3 °C 91,00% 15 lf 100 lf 47 cb 1009,5 hPa 0,0 mm 22,5 km/h (4 Bft) W-SW 247 ° 15 min 0 min 0,051 mm 0,0 UV-I 55 W/m² 4,3 °C 1,4 °C 40,2 km/h (6 Bft)
31.01.23 14:30:00 6,1 °C 5,7 °C 6,1 °C 5,0 °C 4,4 °C 3,9 °C 3,3 °C 91,00% 15 lf 100 lf 48 cb 1008,9 hPa 0,0 mm 24,1 km/h (4 Bft) W-SW 247 ° 15 min 0 min 0,000 mm 0,0 UV-I 57 W/m² 4,7 °C 1,5 °C 41,8 km/h (6 Bft)
31.01.23 15:00:00 6,3 °C 6,1 °C 6,3 °C 5,0 °C 4,4 °C 3,9 °C 3,3 °C 91,00% 15 lf 100 lf 48 cb 1008,7 hPa 0,0 mm 24,1 km/h (4 Bft) W-SW 247 ° 15 min 0 min 0,051 mm 0,0 UV-I 27 W/m² 4,9 °C 2,0 °C 43,5 km/h (6 Bft)
31.01.23 15:30:00 6,7 °C 6,3 °C 6,7 °C 5,6 °C 4,4 °C 3,9 °C 3,3 °C 91,00% 15 lf 100 lf 49 cb 1008,3 hPa 0,0 mm 22,5 km/h (4 Bft) W-SW 247 ° 15 min 0 min 0,000 mm 0,0 UV-I 25 W/m² 5,3 °C 2,4 °C 43,5 km/h (6 Bft)
31.01.23 16:00:00 6,9 °C 6,6 °C 6,9 °C 5,6 °C 4,4 °C 3,9 °C 3,3 °C 90,00% 15 lf 100 lf 48 cb 1008,4 hPa 0,0 mm 20,9 km/h (4 Bft) W-SW 247 ° 15 min 0 min 0,025 mm 0,0 UV-I 21 W/m² 5,4 °C 3,0 °C 38,6 km/h (6 Bft)
31.01.23 16:30:00 7,2 °C 6,9 °C 7,3 °C 6,1 °C 4,4 °C 3,9 °C 3,3 °C 89,00% 15 lf 100 lf 49 cb 1008,2 hPa 0,0 mm 29,0 km/h (5 Bft) W-SW 247 ° 15 min 0 min 0,000 mm 0,0 UV-I 8 W/m² 5,5 °C 2,6 °C 57,9 km/h (7 Bft)
31.01.23 17:00:00 7,4 °C 7,2 °C 7,4 °C 6,1 °C 4,4 °C 3,9 °C 3,3 °C 88,00% 15 lf 0 lf 49 cb 1008,1 hPa 0,5 mm 29,0 km/h (5 Bft) W-SW 247 ° 0 min 15 min 0,025 mm 0,0 UV-I 1 W/m² 5,5 °C 3,0 °C 48,3 km/h (6 Bft)
31.01.23 17:30:00 7,2 °C 7,2 °C 7,5 °C 6,1 °C 4,4 °C 3,9 °C 3,3 °C 86,00% 0 lf 0 lf 49 cb 1008,0 hPa 0,0 mm 33,8 km/h (5 Bft) W 270 ° 0 min 0 min 0,000 mm 0,0 UV-I 0 W/m² 5,0 °C 2,6 °C 56,3 km/h (7 Bft)
31.01.23 18:00:00 7,1 °C 7,1 °C 7,3 °C 5,6 °C 4,4 °C 3,9 °C 3,3 °C 86,00% 0 lf 0 lf 48 cb 1008,1 hPa 0,0 mm 32,2 km/h (5 Bft) W 270 ° 0 min 0 min 0,025 mm 0,0 UV-I 0 W/m² 4,9 °C 2,6 °C 53,1 km/h (7 Bft)
31.01.23 18:30:00 3,5 °C 3,5 °C 7,2 °C 1,1 °C 4,4 °C 3,9 °C 3,3 °C 87,00% 15 lf 0 lf 41 cb 1008,9 hPa 2,0 mm 35,4 km/h (5 Bft) W 270 ° 0 min 15 min 0,000 mm 0,0 UV-I 0 W/m² 1,5 °C -2,4 °C 74,0 km/h (9 Bft)
31.01.23 19:00:00 3,2 °C 2,9 °C 3,5 °C 1,7 °C 2,8 °C 3,3 °C 3,3 °C 89,00% 15 lf 0 lf 42 cb 1008,6 hPa 4,6 mm 32,2 km/h (5 Bft) W 270 ° 0 min 15 min 0,025 mm 0,0 UV-I 0 W/m² 1,6 °C -2,9 °C 69,2 km/h (8 Bft)
31.01.23 19:30:00 4,6 °C 3,2 °C 4,6 °C 2,8 °C 2,2 °C 2,8 °C 3,3 °C 88,00% 15 lf 0 lf 43 cb 1008,5 hPa 0,5 mm 25,7 km/h (4 Bft) W 270 ° 0 min 15 min 0,000 mm 0,0 UV-I 0 W/m² 2,8 °C -1,9 °C 41,8 km/h (6 Bft)
31.01.23 20:00:00 5,1 °C 4,6 °C 5,1 °C 3,3 °C 2,2 °C 2,8 °C 3,3 °C 86,00% 8 lf 0 lf 44 cb 1008,4 hPa 0,0 mm 35,4 km/h (5 Bft) W 270 ° 0 min 0 min 0,025 mm 0,0 UV-I 0 W/m² 3,0 °C -0,9 °C 62,8 km/h (7 Bft)
31.01.23 20:30:00 4,9 °C 4,7 °C 5,1 °C 3,3 °C 2,2 °C 2,8 °C 3,3 °C 85,00% 0 lf 0 lf 44 cb 1008,6 hPa 0,0 mm 37,0 km/h (5 Bft) W 270 ° 0 min 0 min 0,000 mm 0,0 UV-I 0 W/m² 2,6 °C -0,9 °C 54,7 km/h (7 Bft)
31.01.23 21:00:00 4,9 °C 4,9 °C 5,1 °C 3,3 °C 2,2 °C 2,8 °C 3,3 °C 83,00% 0 lf 0 lf 44 cb 1008,9 hPa 0,5 mm 40,2 km/h (6 Bft) W 270 ° 0 min 15 min 0,025 mm 0,0 UV-I 0 W/m² 2,3 °C -0,9 °C 66,0 km/h (8 Bft)
31.01.23 21:30:00 4,7 °C 4,6 °C 5,0 °C 3,3 °C 2,2 °C 2,8 °C 3,3 °C 84,00% 0 lf 0 lf 44 cb 1009,1 hPa 0,0 mm 40,2 km/h (6 Bft) W 270 ° 0 min 0 min 0,000 mm 0,0 UV-I 0 W/m² 2,2 °C -1,3 °C 59,5 km/h (7 Bft)
31.01.23 22:00:00 4,6 °C 4,5 °C 4,8 °C 3,3 °C 2,2 °C 2,8 °C 3,3 °C 85,00% 0 lf 0 lf 44 cb 1009,2 hPa 0,0 mm 35,4 km/h (5 Bft) W 270 ° 0 min 0 min 0,025 mm 0,0 UV-I 0 W/m² 2,3 °C -1,0 °C 59,5 km/h (7 Bft)
31.01.23 22:30:00 4,7 °C 4,5 °C 4,8 °C 3,3 °C 2,2 °C 2,8 °C 3,3 °C 84,00% 0 lf 0 lf 44 cb 1009,1 hPa 0,0 mm 37,0 km/h (5 Bft) W 270 ° 0 min 0 min 0,000 mm 0,0 UV-I 0 W/m² 2,2 °C -1,2 °C 56,3 km/h (7 Bft)
31.01.23 23:00:00 4,8 °C 4,6 °C 4,8 °C 3,3 °C 2,2 °C 2,2 °C 3,3 °C 85,00% 0 lf 0 lf 43 cb 1009,2 hPa 0,0 mm 35,4 km/h (5 Bft) W 270 ° 0 min 0 min 0,025 mm 0,0 UV-I 0 W/m² 2,5 °C -0,9 °C 56,3 km/h (7 Bft)
31.01.23 23:30:00 4,6 °C 4,5 °C 4,8 °C 3,3 °C 2,2 °C 2,2 °C 3,3 °C 86,00% 0 lf 0 lf 43 cb 1009,3 hPa 0,0 mm 32,2 km/h (5 Bft) W 270 ° 0 min 0 min 0,000 mm 0,0 UV-I 0 W/m² 2,5 °C -0,8 °C 53,1 km/h (7 Bft)
_ Min-Zeit 04:30:00 05:00:00 04:30:00 18:30:00 06:00:00 08:30:00 13:00:00 00:30:00 23:30:00 23:30:00 18:30:00 17:30:00 - 09:30:00 - - - - - - - 04:30:00 19:00:00 09:00:00
Minimum _ 2,8 °C 2,8 °C 3,1 °C 1,1 °C 1,1 °C 1,7 °C 2,8 °C 79,00% 0 lf 0 lf 41 cb 1008,0 hPa - 12,9 km/h (3 Bft) - - - - - - - 0,6 °C -2,9 °C 24,1 km/h (4 Bft)
_ Max-Zeit 17:30:00 17:30:00 17:30:00 17:30:00 18:30:00 18:30:00 23:30:00 15:30:00 19:30:00 16:30:00 17:30:00 06:00:00 19:00:00 21:30:00 - - 16:30:00 21:00:00 15:00:00 23:30:00 13:30:00 17:00:00 17:00:00 18:30:00
Maximum _ 7,5 °C 7,2 °C 7,5 °C 6,1 °C 4,4 °C 3,9 °C 3,3 °C 91,00% 15 lf 100 lf 49 cb 1016,2 hPa 4,6 mm 40,2 km/h - - 15 min 15 min 0,051 mm 0,0 UV-I 74 W/m² 5,5 °C 3,0 °C 74,0 km/h
W (6 Bft) NW (9 Bft)
Durchschnitt _ 4,7 °C 4,5 °C 4,9 °C 3,3 °C 2,6 °C 2,6 °C 3,1 °C 87,00% 7 lf 36 lf 46 cb 1012,0 hPa #12,2 mm 25,3 km/h (4 Bft) W - #4:15 h #2:45 h #0,630 mm 0,0 UV-I 14 W/m² 2,6 °C -0,1 °C 43,1 km/h (6 Bft)

                                                                                                                                                                          _________________________________________________________________________________________________________________________________________________________________________

 Anomalie Daten

ausgewähltes Produkt zur Leistung: Zeitreihen und Trends
 
ausgewähltes Produkt zur Leistung:

 

 

ausgewähltes Produkt zur Leistung: Zeitreihen und Trends

Absolut Daten

ausgewähltes Produkt zur Leistung: Zeitreihen und Trends
ausgewähltes Produkt zur Leistung: Zeitreihen und Trends

 

ausgewähltes Produkt zur Leistung: Zeitreihen und Trends

 

2009 - 2022

Unwetterwarnungen

Unwetterwarnungen

  Überblick über die aktuelle Warnlage in Deutschland

  Radarbild           

aktueller Radarfilm Deutschland

Mecklenburg Vorpommern/

Brandenburg

aktuelles Wetter und aktuelle Temperatur Region Nordost

Waldbrandgefahr   

Deutschlandkarte mit dem Tageswert des Waldbrand-Gefahrenindex WBI, heute